Location: Newark
(45.8667°N, 9.7333°E)
Time: 06:55:22
(UTC+00:00)

Vanguard 3 - Pass Details

Date: 31 January 2020
Orbit: 508 x 3263 km, 33.3° (Epoch: 20 February)

Event Time Altitude Azimuth Distance (km) Brightness Sun altitude
Rises 14:59:11 0° 231° (SW) 6,217 13.9 11.6°
Reaches altitude 10° 15:03:07 10° 225° (SW) 5,495 14.5 11.1°
Maximum altitude 15:19:39 47° 159° (SSE) 3,914 10.9 8.9°
Drops below altitude 10° 15:37:23 10° 94° (E) 5,882 11.1 6.3°
Sets 15:41:45 0° 90° (E) 6,669 11.3 5.7°
